Location: Kimberly
(42.5380°N, 114.3640°W)
Time: 01:17:50
(UTC-07:00)

Tiangong 2 - Visible Passes

Search period start: 14 December 2017 00:00
Search period end: 24 December 2017 00:00
Orbit: 386 x 390 km, 42.8° (Epoch: 13 December)

Date Brightness Start Highest point End Pass type
(mag) Time Alt. Az. Time Alt. Az. Time Alt. Az.
21 Dec 3.0 19:04:26 10° SSW 19:06:16 22° S 19:06:16 22° S visible
22 Dec 3.3 18:06:48 10° S 18:08:49 16° SSE 18:10:39 11° ESE visible
22 Dec 4.0 19:42:07 10° WSW 19:42:57 17° WSW 19:42:57 17° WSW visible
23 Dec 1.8 18:43:50 10° SW 18:46:50 40° SSE 18:47:16 38° SE visible
